Wind_Speed
29 28 28 28 29 28 25 23 20 18 18 14 10 10 11 10 10 10 11 12 12 11 9 9 8 10 12 11 10 10 9 7 4 2 2 6 10 14 18 20 18 14 16
32 30 29 28 28 31 29 25 23 21 21 18 14 12 11 11 11 12 13 12 13 13 11 11 11 10 9 10 10 9 8 7 6 4 5 7 10 14 16 17 15 16 21
34 34 32 31 30 31 31 28 26 24 23 22 18 14 15 14 13 13 13 14 14 14 14 13 12 13 12 11 10 9 9 9 8 7 7 10 12 15 16 16 16 20 25
32 33 32 30 30 30 31 31 30 28 26 24 22 19 16 16 15 15 14 14 13 15 16 16 17 15 14 14 14 13 12 12 12 13 12 12 13 15 16 15 17 23 26
30 30 25 30 29 30 31 31 31 31 28 26 24 22 22 20 19 18 16 15 14 14 15 17 18 19 20 20 19 17 17 16 16 16 15 17 14 13 14 17 21 25 27
32 29 25 22 29 30 29 30 31 29 30 30 28 27 25 24 21 20 19 17 17 17 15 15 17 20 21 21 21 19 19 18 17 17 18 15 12 13 16 21 25 29 31
34 31 29 26 23 29 28 28 28 30 29 31 31 29 28 25 24 23 22 21 19 18 18 17 16 17 19 21 22 21 20 19 18 18 16 12 14 17 21 24 27 31 34
26 30 30 32 27 24 28 30 29 28 30 30 30 31 30 28 25 25 24 24 23 22 21 20 19 18 18 19 19 20 18 18 16 16 16 17 18 21 24 28 31 34 34
32 28 29 30 30 25 23 22 27 29 29 30 29 30 31 29 28 26 26 27 26 25 23 22 22 21 20 21 20 19 18 17 16 18 19 19 20 23 27 30 34 34 32
20 22 26 30 32 29 25 25 22 21 24 28 29 29 29 29 28 27 27 28 27 26 26 25 24 22 22 22 23 21 18 15 18 19 20 21 24 27 30 32 30 30 31
24 20 24 28 29 27 28 29 27 24 23 22 26 29 29 30 30 29 28 29 29 27 28 26 25 24 23 23 24 25 22 21 22 23 24 24 26 27 27 28 29 31 31
31 30 33 28 32 34 32 31 32 31 29 27 26 26 29 30 30 30 30 31 29 31 29 27 27 26 26 26 26 25 24 24 24 25 27 28 26 26 26 27 28 30 29
35 36 36 33 30 36 37 35 34 35 33 31 31 31 28 29 29 29 29 30 30 32 32 30 30 29 29 29 29 28 26 25 25 26 27 26 26 26 27 29 29 29 26
43 44 42 39 32 34 39 40 38 36 37 35 32 31 33 33 32 31 31 30 30 32 33 34 32 31 32 31 29 26 25 24 26 26 24 25 25 27 28 30 31 28 25
37 43 41 38 36 32 35 39 41 39 38 36 30 27 28 28 31 29 29 29 29 32 32 34 35 35 33 32 31 28 26 27 28 25 25 26 27 29 30 32 30 26 24
39 37 44 44 41 38 36 34 38 40 40 39 31 30 31 29 26 26 30 29 28 29 31 33 33 33 34 33 33 31 30 29 26 27 26 27 30 33 33 30 29 24 24
36 36 40 45 46 43 41 39 37 36 41 42 35 33 33 32 34 30 28 26 25 24 27 29 27 28 31 33 33 33 33 29 28 26 26 30 32 32 32 29 29 25 25
39 33 39 43 48 47 46 44 43 39 40 43 37 35 35 29 32 34 32 25 21 22 24 24 24 26 28 27 29 29 29 27 24 24 27 30 32 32 32 31 27 28 25
39 35 39 41 45 44 47 48 47 43 39 43 42 38 38 31 27 23 21 22 24 26 27 28 33 33 31 32 29 26 22 25 27 27 31 32 35 34 34 32 25 27 27
42 45 42 41 47 44 42 43 51 48 43 46 43 41 33 33 31 27 24 24 28 30 30 31 34 39 40 52 45 26 21 27 27 30 35 36 36 34 33 31 30 28 28
33 37 43 47 48 45 40 43 46 44 40 45 45 38 35 35 34 31 28 26 29 32 31 31 32 36 46 41 56 49 46 27 26 34 41 40 33 30 29 29 29 29 28
37 36 33 41 43 43 46 48 46 45 40 38 39 42 41 39 34 30 34 32 31 33 33 34 35 34 37 37 25 27 29 25 32 37 35 34 31 31 32 30 29 27 28
30 36 25 31 40 41 43 46 45 49 49 16 35 35 29 27 28 30 33 33 33 36 34 31 29 28 28 28 19 24 27 30 30 33 33 31 33 33 35 37 32 28 28
29 27 23 35 35 41 44 48 45 36 37 31 49 40 31 34 34 30 29 33 34 33 35 33 29 32 30 24 20 23 25 24 29 25 25 34 35 35 34 33 30 29 30
27 18 26 15 27 24 37 31 26 26 30 33 34 36 33 32 27 27 32 29 22 24 24 26 26 25 17 19 22 22 26 34 37 33 33 34 33 30 28 30 32 33 33
12 15 13 12 11 10 14 21 17 16 16 11 14 18 21 24 25 27 18 19 24 21 23 18 25 28 27 26 23 23 25 28 32 35 32 33 33 32 33 34 35 36 35
Wind_Direction
211 210 216 213 214 222 220 217 215 218 233 236 224 206 205 206 211 202 204 194 189 177 172 172 168 164 164 177 179 175 172 175 175 191 321 332 347 342 341 342 337 345 351
210 213 213 217 214 219 225 223 221 217 227 237 235 216 225 225 218 215 214 211 205 199 187 183 185 191 190 194 196 204 209 213 212 222 280 303 319 323 324 324 330 338 346
208 212 213 214 217 217 221 221 224 222 225 234 241 228 220 223 227 225 224 218 209 211 212 202 196 199 205 212 221 228 238 250 258 255 280 295 303 309 320 319 327 333 344
209 211 216 215 216 219 221 222 220 223 224 228 233 241 237 234 234 230 231 230 217 214 216 220 219 213 212 221 231 238 248 259 271 279 281 289 308 309 305 315 326 329 331
209 210 215 216 214 215 219 223 225 220 223 225 230 231 236 238 235 234 233 232 233 228 223 222 225 229 230 231 234 240 250 257 267 279 288 291 291 298 313 313 316 317 328
218 215 213 217 217 215 216 219 225 226 221 224 224 229 229 233 236 235 234 233 231 236 236 231 230 231 232 235 239 242 249 256 265 272 275 284 298 305 305 308 314 319 322
224 221 216 218 218 217 216 218 220 226 224 222 225 227 232 233 233 234 233 235 235 235 238 241 239 239 239 239 241 243 247 256 262 267 274 289 290 299 304 311 310 316 319
231 226 219 217 216 217 219 219 218 220 228 228 226 227 231 234 233 233 237 236 236 237 237 239 242 245 247 246 243 243 244 249 257 270 283 290 293 302 310 309 311 311 313
227 237 223 216 214 213 219 223 227 227 225 230 231 230 231 231 234 234 238 242 239 238 240 244 247 246 246 251 249 242 239 242 252 263 271 281 294 305 305 303 307 310 316
220 245 244 223 216 218 220 226 225 227 231 229 233 235 235 235 233 234 237 243 245 244 245 246 247 247 243 243 251 253 245 253 269 274 283 293 298 297 298 301 306 310 317
229 246 263 245 220 211 216 221 226 226 227 230 232 235 235 234 234 235 234 239 246 248 248 247 247 249 251 250 247 245 249 258 265 274 280 283 288 293 297 301 308 312 311
231 233 245 253 233 222 222 223 224 230 232 232 231 232 235 236 236 235 236 238 239 245 247 248 248 245 244 246 247 250 260 266 272 278 283 288 293 295 301 303 302 303 306
232 239 238 244 243 233 232 231 228 229 231 234 236 236 239 238 237 235 235 237 239 242 246 249 249 246 243 240 243 249 255 263 271 277 282 286 290 294 298 300 302 301 303
231 239 243 241 244 244 233 233 235 232 231 232 237 241 237 239 242 237 234 235 238 242 245 248 251 250 247 247 249 251 259 270 275 275 280 283 288 292 294 295 297 298 299
230 235 239 244 244 242 244 243 240 237 234 232 238 240 242 247 244 244 240 239 243 245 252 253 251 251 254 256 256 260 266 268 271 273 272 278 288 291 291 291 291 293 297
234 236 237 242 242 240 243 247 244 242 236 231 232 235 239 248 248 244 248 248 248 248 250 252 254 255 255 256 258 261 262 268 267 266 274 287 294 296 293 294 295 291 294
238 237 237 239 245 245 242 244 248 244 238 231 231 237 245 245 248 250 249 257 253 249 249 249 249 250 252 255 259 262 266 262 263 268 283 293 296 297 296 290 291 294 294
243 240 237 238 243 245 246 246 246 247 245 233 230 237 242 247 251 250 250 249 246 244 247 245 246 253 258 262 266 262 261 262 262 270 281 291 297 294 294 294 286 292 288
240 235 236 240 246 247 246 246 245 245 246 233 228 237 243 245 249 248 240 238 241 246 245 240 241 244 242 244 250 256 264 265 267 273 281 291 296 293 289 287 285 287 286
235 232 232 238 237 239 246 249 247 245 245 234 227 234 240 244 245 243 240 241 249 253 253 259 265 262 256 254 262 296 282 273 276 280 287 290 289 281 279 281 281 282 283
240 239 236 232 241 237 236 237 241 243 241 231 228 229 234 239 242 243 241 243 247 250 253 259 276 279 265 278 270 283 267 277 276 276 284 287 282 278 276 275 279 283 283
236 241 236 232 233 230 228 230 231 233 237 230 224 226 234 235 238 244 244 239 240 244 260 274 276 270 270 270 261 286 254 254 272 275 274 273 276 276 276 280 281 279 278
234 229 242 230 229 226 223 228 229 230 223 240 218 211 212 217 217 232 238 243 247 257 264 265 268 267 255 260 268 257 255 257 257 264 264 276 279 277 280 286 280 276 279
219 208 219 230 232 230 231 229 228 226 233 222 218 222 233 233 237 252 262 265 271 271 263 261 262 259 258 257 247 247 261 268 268 260 267 279 276 278 282 283 283 281 279
215 206 226 251 224 212 230 225 211 207 199 205 217 223 229 239 246 270 274 267 264 268 267 273 266 268 253 258 273 272 267 262 267 280 282 279 280 280 277 278 280 284 287
148 163 167 177 186 181 204 201 206 216 209 216 231 237 248 262 269 273 258 262 264 264 264 263 244 256 272 269 258 249 257 266 273 278 279 281 282 279 277 279 281 284 286
Height
3187 3191 3194 3198 3202 3206 3210 3214 3218 3222 3225 3228 3231 3234 3236 3239 3241 3244 3246 3248 3250 3251 3252 3254 3255 3257 3258 3261 3262 3263 3263 3264 3265 3265 3265 3265 3264 3263 3261 3260 3259 3258 3256
3183 3187 3190 3194 3198 3201 3204 3210 3214 3219 3221 3224 3227 3231 3233 3236 3238 3241 3244 3246 3248 3250 3252 3253 3254 3256 3258 3259 3260 3261 3262 3263 3264 3265 3265 3264 3263 3262 3261 3259 3257 3255 3253
3176 3180 3184 3188 3192 3195 3199 3204 3209 3213 3217 3219 3223 3227 3231 3234 3236 3238 3240 3243 3245 3247 3249 3251 3253 3254 3255 3257 3258 3259 3260 3260 3261 3261 3262 3261 3261 3259 3257 3255 3253 3251 3249
3171 3173 3177 3181 3186 3190 3195 3198 3203 3207 3212 3215 3219 3222 3226 3229 3231 3234 3236 3238 3242 3244 3246 3248 3250 3251 3253 3254 3255 3256 3257 3257 3258 3258 3258 3257 3257 3256 3254 3251 3251 3249 3247
3166 3168 3172 3176 3180 3184 3187 3193 3197 3201 3206 3211 3214 3218 3221 3224 3227 3229 3232 3235 3237 3239 3242 3244 3246 3247 3249 3250 3251 3252 3253 3253 3254 3254 3254 3253 3253 3251 3249 3248 3247 3245 3243
3162 3165 3169 3172 3175 3177 3181 3186 3191 3195 3200 3203 3207 3211 3214 3218 3222 3225 3227 3230 3233 3235 3237 3239 3241 3242 3244 3245 3246 3248 3249 3249 3250 3249 3249 3248 3248 3246 3245 3244 3242 3240 3237
3157 3161 3164 3169 3170 3173 3176 3180 3185 3188 3193 3196 3200 3204 3208 3213 3217 3220 3222 3223 3226 3229 3232 3234 3236 3237 3239 3240 3241 3242 3243 3244 3244 3244 3244 3244 3242 3242 3241 3240 3237 3234 3231
3152 3155 3158 3162 3166 3168 3170 3174 3178 3182 3186 3189 3194 3198 3202 3206 3211 3214 3217 3218 3220 3223 3225 3228 3230 3232 3233 3234 3235 3236 3237 3238 3238 3238 3238 3238 3238 3238 3235 3232 3230 3228 3226
3145 3149 3152 3156 3161 3164 3166 3170 3173 3176 3180 3184 3187 3191 3194 3199 3203 3208 3210 3212 3214 3216 3219 3221 3223 3225 3228 3228 3228 3230 3231 3233 3233 3233 3233 3233 3233 3231 3229 3227 3225 3221 3218
3137 3142 3148 3151 3155 3158 3162 3165 3169 3171 3175 3178 3181 3184 3188 3192 3196 3200 3203 3205 3207 3210 3212 3214 3216 3218 3220 3222 3222 3223 3224 3227 3227 3227 3227 3227 3227 3225 3223 3220 3218 3215 3211
3131 3135 3141 3145 3148 3152 3155 3159 3163 3166 3170 3172 3175 3178 3180 3184 3188 3192 3195 3197 3200 3202 3204 3207 3209 3211 3213 3215 3216 3217 3219 3221 3221 3221 3222 3222 3221 3219 3217 3215 3211 3208 3205
3120 3125 3134 3138 3142 3145 3147 3152 3156 3159 3162 3165 3168 3170 3173 3176 3180 3184 3187 3189 3193 3193 3196 3199 3202 3204 3206 3208 3210 3212 3213 3214 3215 3215 3214 3214 3213 3211 3209 3207 3205 3202 3199
3117 3124 3128 3130 3133 3136 3139 3143 3147 3151 3154 3157 3161 3163 3166 3169 3172 3176 3179 3183 3185 3186 3189 3191 3194 3196 3199 3201 3204 3206 3207 3208 3208 3208 3207 3207 3206 3204 3202 3200 3197 3195 3193
3111 3115 3120 3122 3123 3126 3130 3134 3137 3142 3146 3149 3152 3155 3158 3161 3164 3168 3171 3175 3178 3180 3182 3184 3187 3189 3190 3193 3196 3200 3201 3202 3201 3201 3200 3199 3198 3197 3195 3192 3190 3187 3185
3103 3106 3108 3111 3114 3117 3121 3124 3128 3134 3138 3142 3145 3149 3151 3153 3156 3161 3165 3168 3172 3174 3176 3177 3179 3181 3184 3187 3190 3192 3194 3194 3194 3194 3194 3193 3192 3190 3187 3185 3182 3180 3179
3091 3094 3098 3102 3105 3109 3112 3115 3118 3123 3128 3133 3137 3140 3144 3147 3150 3153 3155 3159 3164 3167 3167 3169 3172 3174 3177 3179 3181 3183 3184 3185 3186 3186 3187 3186 3184 3182 3179 3177 3174 3172 3171
3082 3084 3086 3091 3094 3099 3103 3107 3110 3113 3117 3123 3128 3132 3134 3138 3141 3144 3148 3150 3154 3158 3159 3162 3165 3167 3169 3170 3173 3175 3176 3177 3177 3179 3179 3178 3176 3174 3172 3170 3167 3166 3164
3071 3074 3077 3080 3083 3088 3093 3097 3100 3104 3107 3113 3119 3123 3126 3128 3132 3136 3140 3143 3145 3148 3151 3153 3155 3158 3162 3165 3166 3167 3167 3169 3169 3169 3170 3169 3168 3166 3163 3162 3160 3159 3158
3060 3063 3067 3071 3075 3078 3081 3085 3089 3095 3098 3103 3110 3114 3118 3120 3125 3129 3133 3136 3138 3140 3141 3142 3144 3146 3148 3151 3157 3150 3155 3160 3161 3160 3160 3160 3159 3157 3156 3154 3152 3151 3150
3048 3052 3056 3061 3065 3070 3075 3077 3079 3084 3088 3094 3101 3106 3111 3114 3117 3122 3124 3128 3130 3132 3134 3137 3139 3142 3145 3139 3138 3136 3147 3151 3152 3151 3152 3152 3151 3150 3148 3145 3143 3144 3142
3037 3041 3046 3052 3054 3060 3066 3067 3067 3072 3080 3086 3092 3098 3102 3107 3110 3112 3116 3119 3122 3124 3127 3129 3130 3132 3133 3134 3137 3138 3140 3142 3142 3144 3145 3143 3141 3140 3139 3138 3136 3135 3133
3029 3029 3035 3038 3043 3049 3054 3056 3059 3064 3066 3075 3082 3088 3093 3095 3102 3104 3107 3110 3112 3116 3119 3120 3120 3123 3123 3124 3120 3119 3129 3131 3135 3136 3134 3133 3132 3131 3130 3131 3129 3125 3122
3022 3025 3027 3030 3034 3040 3045 3048 3053 3056 3058 3046 3065 3082 3088 3090 3093 3096 3098 3100 3102 3104 3107 3109 3111 3112 3113 3115 3112 3116 3119 3120 3123 3124 3124 3123 3122 3122 3120 3120 3120 3117 3114
3020 3022 3024 3025 3029 3033 3036 3039 3044 3046 3050 3054 3071 3074 3078 3082 3084 3085 3085 3088 3090 3092 3095 3098 3102 3105 3105 3105 3104 3107 3109 3112 3114 3114 3113 3112 3110 3111 3110 3109 3108 3106 3104
3015 3016 3019 3021 3021 3028 3032 3036 3039 3043 3049 3055 3062 3063 3067 3069 3071 3075 3076 3077 3078 3082 3086 3089 3091 3093 3095 3097 3098 3099 3102 3104 3104 3103 3103 3100 3100 3102 3100 3099 3096 3094 3091
3004 3013 3015 3017 3020 3022 3027 3028 3032 3032 3037 3048 3051 3055 3057 3060 3063 3064 3066 3067 3073 3077 3080 3082 3084 3084 3087 3089 3089 3088 3089 3090 3091 3091 3091 3091 3093 3092 3090 3088 3085 3082 3081